Skip navigation

Daily Weather Reports

[Select Refresh to Update]


Yesterday's Data File


9/30/14
Time

Wind Dir
 

Wind Spd
mph

Wind Gust
mph

Hum In
%

Humidity
%

Temp In
 F

Temp
 F

Raw Barom
in

Tot Rain
in

DailyRain
in

HourRain
in

24HrRain
in

RainRate
in/hr
12:00am 101 0 3 31 56 80.6 66.1 29.91 0.99 0.00 0.00 0.00 0.000
12:01am 101 1 2 31 56 80.6 66.0 29.91 0.99 0.00 0.00 0.00 0.000
12:02am 101 0 2 31 56 80.6 66.0 29.91 0.99 0.00 0.00 0.00 0.000
12:03am 113 2 3 31 56 80.6 65.9 29.91 0.99 0.00 0.00 0.00 0.000
12:04am 169 3 4 31 57 80.6 65.9 29.91 0.99 0.00 0.00 0.00 0.000
12:05am 169 3 4 31 57 80.4 65.8 29.91 0.99 0.00 0.00 0.00 0.000
12:06am 169 0 4 31 57 80.4 65.7 29.91 0.99 0.00 0.00 0.00 0.000
12:07am 169 0 4 31 57 80.4 65.6 29.91 0.99 0.00 0.00 0.00 0.000
12:08am 169 0 4 31 57 80.4 65.6 29.92 0.99 0.00 0.00 0.00 0.000
12:09am 169 0 4 31 57 80.4 65.6 29.92 0.99 0.00 0.00 0.00 0.000
12:10am 169 0 4 31 58 80.4 65.6 29.91 0.99 0.00 0.00 0.00 0.000
12:11am 169 0 4 31 58 80.4 65.6 29.91 0.99 0.00 0.00 0.00 0.000
12:12am 169 0 4 31 59 80.4 65.6 29.91 0.99 0.00 0.00 0.00 0.000
12:13am 82 6 6 31 59 80.4 65.7 29.91 0.99 0.00 0.00 0.00 0.000
12:14am 31 3 6 31 60 80.4 65.7 29.91 0.99 0.00 0.00 0.00 0.000
12:15am 31 2 6 31 59 80.4 65.6 29.91 0.99 0.00 0.00 0.00 0.000
12:16am 30 2 4 31 59 80.4 65.5 29.91 0.99 0.00 0.00 0.00 0.000
12:17am 30 1 4 31 59 80.4 65.3 29.91 0.99 0.00 0.00 0.00 0.000
12:18am 30 1 4 31 60 80.4 65.2 29.91 0.99 0.00 0.00 0.00 0.000
12:19am 30 0 4 31 60 80.4 65.1 29.92 0.99 0.00 0.00 0.00 0.000
12:20am 30 1 4 31 61 80.4 65.1 29.92 0.99 0.00 0.00 0.00 0.000
12:21am 30 0 4 31 61 80.4 65.1 29.92 0.99 0.00 0.00 0.00 0.000
12:22am 30 0 4 31 62 80.4 65.1 29.92 0.99 0.00 0.00 0.00 0.000
12:23am 30 0 4 31 62 80.2 65.0 29.91 0.99 0.00 0.00 0.00 0.000
12:24am 30 0 4 31 63 80.2 65.0 29.91 0.99 0.00 0.00 0.00 0.000
12:25am 30 0 4 31 64 80.2 65.1 29.92 0.99 0.00 0.00 0.00 0.000
12:26am 30 0 4 31 64 80.2 65.0 29.92 0.99 0.00 0.00 0.00 0.000
12:27am 30 0 4 31 64 80.2 65.1 29.91 0.99 0.00 0.00 0.00 0.000
12:28am 30 0 4 31 64 80.2 65.1 29.91 0.99 0.00 0.00 0.00 0.000
12:29am 30 0 4 31 65 80.2 65.1 29.91 0.99 0.00 0.00 0.00 0.000
12:30am 30 0 4 31 65 80.2 65.1 29.91 0.99 0.00 0.00 0.00 0.000
12:30am 30 0 0 31 65 80.2 65.0 29.91 0.99 0.00 0.00 0.00 0.000
12:32am 30 1 2 31 65 80.2 65.0 29.91 0.99 0.00 0.00 0.00 0.000
12:33am 30 0 2 31 65 80.2 64.9 29.91 0.99 0.00 0.00 0.00 0.000
12:34am 30 0 2 31 66 80.2 65.0 29.91 0.99 0.00 0.00 0.00 0.000
12:35am 30 0 2 31 66 80.2 65.0 29.91 0.99 0.00 0.00 0.00 0.000
12:36am 30 0 2 31 66 80.2 65.0 29.92 0.99 0.00 0.00 0.00 0.000
12:37am 30 1 2 31 66 80.2 65.0 29.91 0.99 0.00 0.00 0.00 0.000
12:38am 59 1 2 31 66 80.2 65.0 29.92 0.99 0.00 0.00 0.00 0.000
12:39am 59 0 2 31 66 80.2 64.9 29.92 0.99 0.00 0.00 0.00 0.000
12:40am 59 0 2 31 66 80.2 64.8 29.91 0.99 0.00 0.00 0.00 0.000
12:40am 59 0 2 31 66 80.1 64.8 29.92 0.99 0.00 0.00 0.00 0.000
12:42am 59 0 2 31 66 80.1 64.8 29.92 0.99 0.00 0.00 0.00 0.000
12:43am 59 0 2 31 67 80.1 64.7 29.92 0.99 0.00 0.00 0.00 0.000
12:44am 59 0 2 31 67 80.1 64.7 29.92 0.99 0.00 0.00 0.00 0.000
12:45am 59 0 2 31 67 80.1 64.6 29.91 0.99 0.00 0.00 0.00 0.000
12:46am 59 0 0 31 67 80.1 64.5 29.92 0.99 0.00 0.00 0.00 0.000
12:47am 59 0 1 31 67 80.1 64.4 29.91 0.99 0.00 0.00 0.00 0.000
12:48am 59 0 1 31 67 80.1 64.4 29.92 0.99 0.00 0.00 0.00 0.000
12:49am 59 0 1 31 67 80.1 64.3 29.92 0.99 0.00 0.00 0.00 0.000
12:50am 59 3 3 31 66 80.1 64.1 29.92 0.99 0.00 0.00 0.00 0.000
12:51am 9 5 5 31 66 80.1 63.9 29.92 0.99 0.00 0.00 0.00 0.000
12:52am 8 3 5 31 66 80.1 63.7 29.92 0.99 0.00 0.00 0.00 0.000
12:53am 8 0 5 31 66 80.1 63.4 29.92 0.99 0.00 0.00 0.00 0.000
12:54am 9 0 5 31 66 80.1 63.1 29.92 0.99 0.00 0.00 0.00 0.000
12:55am 9 0 5 31 67 79.9 63.0 29.92 0.99 0.00 0.00 0.00 0.000
12:56am 7 4 5 31 68 79.9 62.9 29.92 0.99 0.00 0.00 0.00 0.000
12:57am 5 0 5 31 68 79.9 62.8 29.92 0.99 0.00 0.00 0.00 0.000
12:58am 5 0 5 31 68 79.9 62.6 29.92 0.99 0.00 0.00 0.00 0.000
12:59am 5 0 5 31 68 79.9 62.5 29.92 0.99 0.00 0.00 0.00 0.000
1:00am 5 0 5 31 68 79.9 62.5 29.92 0.99 0.00 0.00 0.00 0.000
1:01am 5 1 2 31 69 79.9 62.5 29.91 0.99 0.00 0.00 0.00 0.000
1:02am 5 2 2 31 69 79.9 62.6 29.91 0.99 0.00 0.00 0.00 0.000
1:03am 5 3 5 31 69 79.9 62.6 29.92 0.99 0.00 0.00 0.00 0.000
1:04am 5 2 5 31 69 79.9 62.6 29.91 0.99 0.00 0.00 0.00 0.000
1:05am 5 0 5 31 69 79.9 62.4 29.91 0.99 0.00 0.00 0.00 0.000
1:06am 5 0 5 31 69 79.7 62.3 29.91 0.99 0.00 0.00 0.00 0.000
1:07am 5 0 5 31 69 79.7 62.2 29.91 0.99 0.00 0.00 0.00 0.000
1:08am 5 0 5 31 69 79.7 62.2 29.91 0.99 0.00 0.00 0.00 0.000
1:09am 5 0 5 31 69 79.7 62.2 29.91 0.99 0.00 0.00 0.00 0.000
1:10am 5 0 5 31 70 79.7 62.1 29.91 0.99 0.00 0.00 0.00 0.000
1:11am 5 0 5 31 70 79.7 62.1 29.91 0.99 0.00 0.00 0.00 0.000
1:12am 5 0 5 31 70 79.7 62.1 29.91 0.99 0.00 0.00 0.00 0.000
1:13am 5 0 5 31 70 79.7 62.1 29.91 0.99 0.00 0.00 0.00 0.000
1:14am 5 1 5 31 70 79.7 62.1 29.91 0.99 0.00 0.00 0.00 0.000
1:15am 5 0 5 31 70 79.5 62.1 29.91 0.99 0.00 0.00 0.00 0.000
1:16am 5 0 0 31 70 79.5 62.1 29.91 0.99 0.00 0.00 0.00 0.000
1:17am 5 0 0 31 71 79.5 62.1 29.91 0.99 0.00 0.00 0.00 0.000
1:18am 5 0 0 31 71 79.5 62.2 29.91 0.99 0.00 0.00 0.00 0.000
1:19am 5 0 0 31 71 79.5 62.3 29.91 0.99 0.00 0.00 0.00 0.000
1:20am 5 0 0 31 71 79.5 62.2 29.91 0.99 0.00 0.00 0.00 0.000
1:21am 5 0 0 31 71 79.5 62.2 29.91 0.99 0.00 0.00 0.00 0.000
1:22am 5 0 0 31 71 79.5 62.1 29.91 0.99 0.00 0.00 0.00 0.000
1:23am 5 0 0 31 71 79.3 62.1 29.91 0.99 0.00 0.00 0.00 0.000
1:24am 5 0 0 31 71 79.3 62.0 29.91 0.99 0.00 0.00 0.00 0.000
1:25am 5 1 1 31 71 79.3 62.0 29.91 0.99 0.00 0.00 0.00 0.000
1:26am 5 2 3 31 71 79.3 61.9 29.91 0.99 0.00 0.00 0.00 0.000
1:27am 5 2 3 31 70 79.3 61.8 29.91 0.99 0.00 0.00 0.00 0.000
1:28am 5 0 3 31 70 79.3 61.6 29.91 0.99 0.00 0.00 0.00 0.000
1:29am 5 0 3 31 70 79.3 61.4 29.91 0.99 0.00 0.00 0.00 0.000
1:30am 5 0 3 31 70 79.3 61.3 29.91 0.99 0.00 0.00 0.00 0.000
1:31am 5 0 0 31 71 79.1 61.3 29.91 0.99 0.00 0.00 0.00 0.000
1:32am 5 0 0 31 71 79.1 61.3 29.91 0.99 0.00 0.00 0.00 0.000
1:33am 5 0 0 31 71 79.1 61.3 29.91 0.99 0.00 0.00 0.00 0.000
1:34am 5 0 0 31 72 79.1 61.3 29.91 0.99 0.00 0.00 0.00 0.000
1:35am 5 0 0 31 72 79.1 61.4 29.91 0.99 0.00 0.00 0.00 0.000
1:36am 5 0 0 31 72 79.1 61.4 29.91 0.99 0.00 0.00 0.00 0.000
1:37am 5 0 0 31 72 79.1 61.4 29.91 0.99 0.00 0.00 0.00 0.000
1:38am 5 0 0 31 72 79.1 61.4 29.91 0.99 0.00 0.00 0.00 0.000
1:39am 5 0 0 31 72 78.9 61.5 29.91 0.99 0.00 0.00 0.00 0.000
1:40am 5 0 0 31 72 78.9 61.5 29.91 0.99 0.00 0.00 0.00 0.000
1:41am 5 0 0 31 72 78.9 61.6 29.91 0.99 0.00 0.00 0.00 0.000
1:42am 5 0 0 31 72 78.9 61.7 29.91 0.99 0.00 0.00 0.00 0.000
1:42am 5 0 0 31 72 78.9 61.7 29.91 0.99 0.00 0.00 0.00 0.000
1:44am 5 0 0 31 72 78.9 61.7 29.91 0.99 0.00 0.00 0.00 0.000
1:45am 5 0 0 31 72 78.9 61.7 29.91 0.99 0.00 0.00 0.00 0.000
1:46am 5 0 0 31 72 78.9 61.7 29.91 0.99 0.00 0.00 0.00 0.000
1:47am 5 0 0 31 72 78.8 61.7 29.91 0.99 0.00 0.00 0.00 0.000
1:48am 5 0 0 31 72 78.8 61.7 29.91 0.99 0.00 0.00 0.00 0.000
1:49am 5 0 0 31 72 78.8 61.6 29.91 0.99 0.00 0.00 0.00 0.000
1:50am 5 0 0 31 71 78.8 61.4 29.91 0.99 0.00 0.00 0.00 0.000
1:51am 5 0 0 31 71 78.8 61.4 29.91 0.99 0.00 0.00 0.00 0.000
1:52am 5 0 0 31 71 78.8 61.3 29.91 0.99 0.00 0.00 0.00 0.000
1:53am 5 0 0 31 71 78.8 61.2 29.92 0.99 0.00 0.00 0.00 0.000
1:54am 5 0 0 31 71 78.8 61.1 29.92 0.99 0.00 0.00 0.00 0.000
1:55am 5 0 0 31 71 78.8 61.1 29.92 0.99 0.00 0.00 0.00 0.000
1:56am 5 0 0 31 71 78.6 61.0 29.92 0.99 0.00 0.00 0.00 0.000
1:57am 5 0 0 31 71 78.6 61.0 29.92 0.99 0.00 0.00 0.00 0.000
1:58am 5 0 0 31 72 78.6 61.0 29.92 0.99 0.00 0.00 0.00 0.000
1:59am 5 0 0 31 72 78.6 61.0 29.92 0.99 0.00 0.00 0.00 0.000
2:00am 5 0 0 31 72 78.6 61.0 29.92 0.99 0.00 0.00 0.00 0.000
2:01am 5 0 0 31 72 78.6 60.9 29.91 0.99 0.00 0.00 0.00 0.000
2:02am 5 0 0 31 72 78.6 61.0 29.91 0.99 0.00 0.00 0.00 0.000
2:03am 5 0 0 31 72 78.6 61.0 29.91 0.99 0.00 0.00 0.00 0.000
2:04am 5 0 0 31 72 78.4 61.0 29.91 0.99 0.00 0.00 0.00 0.000
2:05am 5 0 0 31 72 78.4 61.0 29.91 0.99 0.00 0.00 0.00 0.000
2:06am 5 0 0 31 72 78.4 61.1 29.91 0.99 0.00 0.00 0.00 0.000
2:07am 5 0 0 31 72 78.4 61.1 29.91 0.99 0.00 0.00 0.00 0.000
2:08am 5 0 0 31 72 78.4 61.1 29.91 0.99 0.00 0.00 0.00 0.000
2:08am 5 0 0 31 72 78.4 61.2 29.91 0.99 0.00 0.00 0.00 0.000
2:10am 5 0 0 31 72 78.4 61.2 29.91 0.99 0.00 0.00 0.00 0.000
2:11am 5 0 0 31 72 78.4 61.2 29.91 0.99 0.00 0.00 0.00 0.000
2:12am 5 0 0 31 72 78.4 61.1 29.91 0.99 0.00 0.00 0.00 0.000
2:13am 5 0 0 31 72 78.2 61.1 29.91 0.99 0.00 0.00 0.00 0.000
2:14am 5 2 3 31 72 78.2 61.1 29.91 0.99 0.00 0.00 0.00 0.000
2:15am 5 1 3 31 70 78.2 61.0 29.91 0.99 0.00 0.00 0.00 0.000
2:16am 5 0 1 31 70 78.2 60.9 29.91 0.99 0.00 0.00 0.00 0.000
2:17am 5 2 3 31 69 78.2 60.8 29.91 0.99 0.00 0.00 0.00 0.000
2:18am 5 4 4 31 69 78.2 60.7 29.91 0.99 0.00 0.00 0.00 0.000
2:19am 5 1 4 31 69 78.2 60.7 29.91 0.99 0.00 0.00 0.00 0.000
2:20am 5 3 4 31 69 78.2 60.7 29.91 0.99 0.00 0.00 0.00 0.000
2:21am 5 2 4 31 68 78.1 60.7 29.91 0.99 0.00 0.00 0.00 0.000
2:22am 4 3 4 31 68 78.1 60.8 29.91 0.99 0.00 0.00 0.00 0.000
2:23am 5 2 4 31 68 78.1 60.9 29.91 0.99 0.00 0.00 0.00 0.000
2:24am 5 0 4 31 68 78.1 61.0 29.91 0.99 0.00 0.00 0.00 0.000
2:25am 5 2 4 31 68 78.1 61.0 29.91 0.99 0.00 0.00 0.00 0.000
2:26am 5 3 4 31 68 78.1 61.1 29.91 0.99 0.00 0.00 0.00 0.000
2:27am 341 3 4 31 67 78.1 61.2 29.91 0.99 0.00 0.00 0.00 0.000
2:28am 337 4 4 31 67 77.9 61.1 29.91 0.99 0.00 0.00 0.00 0.000
2:29am 334 3 4 31 67 77.9 61.1 29.91 0.99 0.00 0.00 0.00 0.000
2:30am 333 0 4 31 67 77.9 61.1 29.91 0.99 0.00 0.00 0.00 0.000
2:31am 333 0 1 31 67 77.9 61.2 29.91 0.99 0.00 0.00 0.00 0.000
2:32am 333 0 1 31 67 77.9 61.4 29.91 0.99 0.00 0.00 0.00 0.000
2:33am 333 0 1 31 67 77.9 61.5 29.91 0.99 0.00 0.00 0.00 0.000
2:34am 333 0 1 31 66 77.9 61.5 29.91 0.99 0.00 0.00 0.00 0.000
2:35am 333 0 1 31 66 77.9 61.5 29.91 0.99 0.00 0.00 0.00 0.000
2:36am 333 1 1 31 66 77.7 61.5 29.91 0.99 0.00 0.00 0.00 0.000
2:37am 333 2 3 31 66 77.7 61.4 29.91 0.99 0.00 0.00 0.00 0.000
2:38am 333 2 3 31 66 77.7 61.4 29.91 0.99 0.00 0.00 0.00 0.000
2:39am 333 1 3 31 66 77.7 61.4 29.91 0.99 0.00 0.00 0.00 0.000
2:40am 333 0 3 31 66 77.7 61.4 29.91 0.99 0.00 0.00 0.00 0.000
2:41am 333 2 3 31 66 77.7 61.4 29.91 0.99 0.00 0.00 0.00 0.000
2:42am 333 1 3 31 66 77.7 61.4 29.91 0.99 0.00 0.00 0.00 0.000
2:43am 333 4 4 31 66 77.7 61.4 29.91 0.99 0.00 0.00 0.00 0.000
2:44am 333 3 5 31 66 77.7 61.5 29.91 0.99 0.00 0.00 0.00 0.000
2:45am 333 4 5 31 65 77.7 61.5 29.91 0.99 0.00 0.00 0.00 0.000
2:46am 333 2 4 31 65 77.5 61.5 29.91 0.99 0.00 0.00 0.00 0.000
2:47am 333 2 4 31 65 77.5 61.5 29.91 0.99 0.00 0.00 0.00 0.000
2:48am 341 4 4 31 65 77.5 61.6 29.91 0.99 0.00 0.00 0.00 0.000
2:49am 349 5 6 31 64 77.5 61.5 29.91 0.99 0.00 0.00 0.00 0.000
2:50am 349 4 6 31 64 77.5 61.4 29.91 0.99 0.00 0.00 0.00 0.000
2:51am 349 4 6 31 64 77.5 61.4 29.91 0.99 0.00 0.00 0.00 0.000
2:52am 349 4 6 31 63 77.5 61.4 29.91 0.99 0.00 0.00 0.00 0.000
2:53am 349 2 6 31 63 77.3 61.3 29.90 0.99 0.00 0.00 0.00 0.000
2:54am 349 2 6 31 63 77.3 61.3 29.91 0.99 0.00 0.00 0.00 0.000
2:55am 349 1 6 31 63 77.3 61.3 29.91 0.99 0.00 0.00 0.00 0.000
2:56am 349 0 6 31 64 77.3 61.4 29.91 0.99 0.00 0.00 0.00 0.000
2:57am 349 0 6 31 64 77.3 61.5 29.90 0.99 0.00 0.00 0.00 0.000
2:58am 349 0 6 31 64 77.3 61.5 29.91 0.99 0.00 0.00 0.00 0.000
2:59am 349 2 6 31 64 77.3 61.5 29.91 0.99 0.00 0.00 0.00 0.000
3:00am 349 1 6 31 64 77.3 61.4 29.91 0.99 0.00 0.00 0.00 0.000
3:00am 349 0 2 31 64 77.3 61.4 29.91 0.99 0.00 0.00 0.00 0.000
3:02am 349 1 2 31 64 77.2 61.4 29.91 0.99 0.00 0.00 0.00 0.000
3:03am 349 2 2 31 64 77.2 61.5 29.91 0.99 0.00 0.00 0.00 0.000
3:04am 349 1 2 31 64 77.2 61.6 29.91 0.99 0.00 0.00 0.00 0.000
3:05am 349 0 2 31 64 77.2 61.6 29.91 0.99 0.00 0.00 0.00 0.000
3:06am 349 0 2 31 64 77.2 61.7 29.91 0.99 0.00 0.00 0.00 0.000
3:07am 349 0 2 31 64 77.2 61.7 29.91 0.99 0.00 0.00 0.00 0.000
3:08am 349 0 2 31 64 77.2 61.7 29.91 0.99 0.00 0.00 0.00 0.000
3:09am 349 0 2 31 63 77.2 61.7 29.91 0.99 0.00 0.00 0.00 0.000
3:10am 349 0 2 31 64 77.2 61.7 29.90 0.99 0.00 0.00 0.00 0.000
3:11am 349 0 2 31 63 77.2 61.6 29.90 0.99 0.00 0.00 0.00 0.000
3:12am 349 0 2 31 63 77.0 61.6 29.91 0.99 0.00 0.00 0.00 0.000
3:13am 349 0 2 31 63 77.0 61.6 29.90 0.99 0.00 0.00 0.00 0.000
3:14am 349 2 2 31 63 77.0 61.5 29.90 0.99 0.00 0.00 0.00 0.000
3:15am 349 1 3 31 63 77.0 61.5 29.90 0.99 0.00 0.00 0.00 0.000
3:16am 349 2 3 31 63 77.0 61.5 29.90 0.99 0.00 0.00 0.00 0.000
3:17am 349 2 4 31 63 77.0 61.5 29.90 0.99 0.00 0.00 0.00 0.000
3:18am 349 2 4 31 63 77.0 61.5 29.90 0.99 0.00 0.00 0.00 0.000
3:19am 349 2 4 31 63 77.0 61.4 29.90 0.99 0.00 0.00 0.00 0.000
3:20am 349 1 4 31 63 76.8 61.4 29.90 0.99 0.00 0.00 0.00 0.000
3:21am 349 0 4 31 63 76.8 61.4 29.90 0.99 0.00 0.00 0.00 0.000
3:22am 349 0 4 31 63 76.8 61.4 29.90 0.99 0.00 0.00 0.00 0.000
3:23am 349 0 4 31 63 76.8 61.4 29.90 0.99 0.00 0.00 0.00 0.000
3:24am 349 0 4 31 63 76.8 61.5 29.90 0.99 0.00 0.00 0.00 0.000
3:25am 349 0 4 31 63 76.8 61.6 29.90 0.99 0.00 0.00 0.00 0.000
3:25am 349 0 4 31 63 76.8 61.6 29.90 0.99 0.00 0.00 0.00 0.000
3:27am 349 0 4 31 63 76.8 61.5 29.90 0.99 0.00 0.00 0.00 0.000
3:28am 349 0 4 31 63 76.8 61.4 29.90 0.99 0.00 0.00 0.00 0.000
3:29am 349 0 4 31 63 76.8 61.4 29.90 0.99 0.00 0.00 0.00 0.000
3:30am 349 2 4 31 63 76.8 61.3 29.90 0.99 0.00 0.00 0.00 0.000
3:31am 349 1 2 31 64 76.6 61.2 29.90 0.99 0.00 0.00 0.00 0.000
3:32am 349 0 2 31 64 76.6 61.1 29.90 0.99 0.00 0.00 0.00 0.000
3:33am 349 0 2 31 63 76.6 61.1 29.90 0.99 0.00 0.00 0.00 0.000
3:34am 349 0 2 31 63 76.6 61.0 29.90 0.99 0.00 0.00 0.00 0.000
3:35am 349 0 2 31 64 76.6 61.0 29.90 0.99 0.00 0.00 0.00 0.000
3:36am 349 0 2 31 63 76.6 61.0 29.90 0.99 0.00 0.00 0.00 0.000
3:37am 349 0 2 31 63 76.6 60.9 29.90 0.99 0.00 0.00 0.00 0.000
3:38am 349 0 2 31 63 76.6 60.9 29.90 0.99 0.00 0.00 0.00 0.000
3:39am 349 0 2 31 63 76.6 60.9 29.90 0.99 0.00 0.00 0.00 0.000
3:40am 349 0 2 31 63 76.6 60.8 29.90 0.99 0.00 0.00 0.00 0.000
3:41am 349 1 2 31 63 76.5 60.8 29.90 0.99 0.00 0.00 0.00 0.000
3:42am 349 0 2 31 64 76.5 60.8 29.90 0.99 0.00 0.00 0.00 0.000
3:43am 349 2 2 31 64 76.5 60.8 29.90 0.99 0.00 0.00 0.00 0.000
3:44am 349 3 3 31 63 76.5 60.7 29.90 0.99 0.00 0.00 0.00 0.000
3:45am 349 1 3 31 63 76.5 60.6 29.90 0.99 0.00 0.00 0.00 0.000
3:46am 349 0 1 31 62 76.5 60.5 29.90 0.99 0.00 0.00 0.00 0.000
3:47am 349 0 1 31 62 76.5 60.4 29.90 0.99 0.00 0.00 0.00 0.000
3:48am 349 0 1 31 62 76.5 60.4 29.90 0.99 0.00 0.00 0.00 0.000
3:49am 349 0 1 31 62 76.5 60.5 29.90 0.99 0.00 0.00 0.00 0.000
3:50am 349 0 1 31 62 76.5 60.5 29.90 0.99 0.00 0.00 0.00 0.000
3:51am 349 0 1 31 62 76.5 60.6 29.90 0.99 0.00 0.00 0.00 0.000
3:52am 349 1 2 31 61 76.5 60.5 29.90 0.99 0.00 0.00 0.00 0.000
3:53am 349 1 2 31 61 76.5 60.5 29.90 0.99 0.00 0.00 0.00 0.000
3:54am 349 2 3 31 61 76.5 60.5 29.90 0.99 0.00 0.00 0.00 0.000
3:55am 349 1 3 31 62 76.5 60.6 29.90 0.99 0.00 0.00 0.00 0.000
3:56am 349 1 3 31 62 76.3 60.6 29.90 0.99 0.00 0.00 0.00 0.000
3:57am 349 3 3 31 62 76.3 60.7 29.90 0.99 0.00 0.00 0.00 0.000
3:58am 349 4 4 31 62 76.3 60.7 29.90 0.99 0.00 0.00 0.00 0.000
3:59am 349 3 5 31 62 76.3 60.8 29.90 0.99 0.00 0.00 0.00 0.000
4:00am 349 4 5 31 62 76.3 60.7 29.90 0.99 0.00 0.00 0.00 0.000
4:01am 349 5 5 31 61 76.3 60.6 29.90 0.99 0.00 0.00 0.00 0.000
4:02am 349 5 5 31 61 76.3 60.4 29.90 0.99 0.00 0.00 0.00 0.000
4:03am 349 5 6 31 61 76.3 60.2 29.90 0.99 0.00 0.00 0.00 0.000
4:04am 350 3 6 31 61 76.3 60.1 29.90 0.99 0.00 0.00 0.00 0.000
4:05am 350 2 6 31 61 76.3 59.8 29.90 0.99 0.00 0.00 0.00 0.000
4:06am 350 0 6 31 61 76.3 59.6 29.90 0.99 0.00 0.00 0.00 0.000
4:07am 350 0 6 31 62 76.3 59.4 29.90 0.99 0.00 0.00 0.00 0.000
4:08am 350 0 6 31 62 76.3 59.3 29.90 0.99 0.00 0.00 0.00 0.000
4:09am 350 0 6 31 63 76.3 59.3 29.90 0.99 0.00 0.00 0.00 0.000
4:10am 350 0 6 31 64 76.3 59.6 29.90 0.99 0.00 0.00 0.00 0.000
4:11am 350 0 6 31 64 76.3 59.7 29.90 0.99 0.00 0.00 0.00 0.000
4:12am 350 0 6 31 65 76.3 60.0 29.90 0.99 0.00 0.00 0.00 0.000
4:13am 350 3 6 31 65 76.3 60.2 29.90 0.99 0.00 0.00 0.00 0.000
4:14am 350 2 6 31 65 76.3 60.3 29.90 0.99 0.00 0.00 0.00 0.000
4:15am 350 1 6 31 65 76.3 60.5 29.90 0.99 0.00 0.00 0.00 0.000
4:16am 350 0 1 31 65 76.3 60.6 29.89 0.99 0.00 0.00 0.00 0.000
4:17am 350 0 1 31 65 76.1 60.7 29.89 0.99 0.00 0.00 0.00 0.000
4:18am 350 0 1 31 65 76.1 60.8 29.89 0.99 0.00 0.00 0.00 0.000
4:19am 350 0 1 31 65 76.1 61.0 29.89 0.99 0.00 0.00 0.00 0.000
4:20am 350 0 1 31 65 76.1 61.0 29.89 0.99 0.00 0.00 0.00 0.000
4:21am 350 3 4 31 65 76.1 61.0 29.89 0.99 0.00 0.00 0.00 0.000
4:22am 350 3 4 31 65 76.1 61.0 29.89 0.99 0.00 0.00 0.00 0.000
4:23am 350 2 4 31 64 76.1 61.0 29.89 0.99 0.00 0.00 0.00 0.000
4:24am 350 1 4 31 64 76.1 60.9 29.90 0.99 0.00 0.00 0.00 0.000
4:25am 350 0 4 31 64 76.1 60.9 29.90 0.99 0.00 0.00 0.00 0.000
4:26am 350 0 4 31 64 76.1 60.9 29.89 0.99 0.00 0.00 0.00 0.000
4:27am 350 0 4 31 64 76.1 60.9 29.89 0.99 0.00 0.00 0.00 0.000
4:28am 350 0 4 31 64 76.1 60.9 29.89 0.99 0.00 0.00 0.00 0.000
4:29am 350 1 4 31 65 76.1 61.0 29.89 0.99 0.00 0.00 0.00 0.000
4:30am 350 0 4 31 64 76.1 60.9 29.89 0.99 0.00 0.00 0.00 0.000
4:31am 350 0 0 31 64 76.1 60.8 29.89 0.99 0.00 0.00 0.00 0.000
4:32am 350 0 0 31 64 76.1 60.8 29.89 0.99 0.00 0.00 0.00 0.000
4:33am 350 0 0 31 65 76.1 60.7 29.89 0.99 0.00 0.00 0.00 0.000
4:34am 350 0 0 31 65 76.1 60.7 29.89 0.99 0.00 0.00 0.00 0.000
4:35am 350 0 0 31 65 76.1 60.6 29.89 0.99 0.00 0.00 0.00 0.000
4:36am 350 0 0 31 65 75.9 60.6 29.89 0.99 0.00 0.00 0.00 0.000
4:37am 350 0 0 31 66 75.9 60.6 29.89 0.99 0.00 0.00 0.00 0.000
4:38am 350 0 0 31 66 75.9 60.5 29.89 0.99 0.00 0.00 0.00 0.000
4:39am 350 0 0 31 66 75.9 60.5 29.89 0.99 0.00 0.00 0.00 0.000
4:40am 350 0 0 31 66 75.9 60.3 29.90 0.99 0.00 0.00 0.00 0.000
4:41am 350 0 0 31 65 75.9 60.2 29.90 0.99 0.00 0.00 0.00 0.000
4:42am 350 0 0 31 66 75.9 60.1 29.90 0.99 0.00 0.00 0.00 0.000
4:43am 350 0 0 31 66 75.9 60.0 29.90 0.99 0.00 0.00 0.00 0.000
4:44am 350 0 0 31 66 75.9 60.0 29.90 0.99 0.00 0.00 0.00 0.000
4:45am 350 0 0 31 66 75.9 59.9 29.90 0.99 0.00 0.00 0.00 0.000
4:46am 350 0 0 31 66 75.9 59.9 29.90 0.99 0.00 0.00 0.00 0.000
4:47am 350 0 0 31 67 75.9 60.0 29.90 0.99 0.00 0.00 0.00 0.000
4:48am 350 0 0 31 67 75.9 59.9 29.90 0.99 0.00 0.00 0.00 0.000
4:49am 350 0 0 31 66 75.9 59.8 29.90 0.99 0.00 0.00 0.00 0.000
4:50am 350 0 0 31 66 75.9 59.8 29.90 0.99 0.00 0.00 0.00 0.000
4:51am 350 0 0 31 66 75.9 59.8 29.90 0.99 0.00 0.00 0.00 0.000
4:52am 350 0 0 31 65 75.9 59.8 29.90 0.99 0.00 0.00 0.00 0.000
4:53am 350 0 0 31 65 75.9 59.7 29.90 0.99 0.00 0.00 0.00 0.000
4:53am 350 0 0 31 65 75.9 59.6 29.90 0.99 0.00 0.00 0.00 0.000
4:55am 350 0 0 31 65 75.8 59.6 29.90 0.99 0.00 0.00 0.00 0.000
4:56am 350 0 0 31 65 75.8 59.6 29.90 0.99 0.00 0.00 0.00 0.000
4:57am 350 0 0 31 66 75.8 59.7 29.90 0.99 0.00 0.00 0.00 0.000
4:58am 350 0 0 31 66 75.8 59.7 29.90 0.99 0.00 0.00 0.00 0.000
4:59am 350 0 0 31 66 75.8 59.7 29.90 0.99 0.00 0.00 0.00 0.000
5:00am 350 3 3 31 66 75.8 59.7 29.90 0.99 0.00 0.00 0.00 0.000
5:01am 350 3 4 31 66 75.8 59.5 29.90 0.99 0.00 0.00 0.00 0.000
5:02am 350 1 4 31 65 75.8 59.3 29.90 0.99 0.00 0.00 0.00 0.000
5:03am 350 0 4 31 65 75.8 59.3 29.90 0.99 0.00 0.00 0.00 0.000
5:04am 350 0 4 31 65 75.6 59.3 29.90 0.99 0.00 0.00 0.00 0.000
5:05am 350 0 4 31 66 75.6 59.3 29.90 0.99 0.00 0.00 0.00 0.000
5:06am 350 1 4 31 66 75.6 59.3 29.90 0.99 0.00 0.00 0.00 0.000
5:06am 350 2 4 31 65 75.6 59.3 29.90 0.99 0.00 0.00 0.00 0.000
5:08am 350 2 4 31 65 75.6 58.9 29.90 0.99 0.00 0.00 0.00 0.000
5:09am 350 3 4 31 64 75.6 58.6 29.90 0.99 0.00 0.00 0.00 0.000
5:10am 350 1 4 31 64 75.6 58.4 29.90 0.99 0.00 0.00 0.00 0.000
5:11am 350 0 4 31 65 75.6 58.2 29.90 0.99 0.00 0.00 0.00 0.000
5:12am 350 0 4 31 65 75.6 58.0 29.90 0.99 0.00 0.00 0.00 0.000
5:13am 350 0 4 31 65 75.4 57.9 29.90 0.99 0.00 0.00 0.00 0.000
5:14am 350 0 4 31 66 75.4 58.0 29.90 0.99 0.00 0.00 0.00 0.000
5:15am 350 2 4 31 67 75.4 58.1 29.90 0.99 0.00 0.00 0.00 0.000
5:16am 350 2 4 31 67 75.4 58.2 29.90 0.99 0.00 0.00 0.00 0.000
5:17am 350 4 4 31 67 75.4 58.3 29.90 0.99 0.00 0.00 0.00 0.000
5:18am 350 3 5 31 67 75.4 58.4 29.90 0.99 0.00 0.00 0.00 0.000
5:19am 350 3 5 31 67 75.4 58.5 29.90 0.99 0.00 0.00 0.00 0.000
5:20am 350 3 5 31 66 75.4 58.5 29.90 0.99 0.00 0.00 0.00 0.000
5:21am 350 2 5 31 66 75.4 58.6 29.90 0.99 0.00 0.00 0.00 0.000
5:22am 350 2 5 31 66 75.4 58.5 29.90 0.99 0.00 0.00 0.00 0.000
5:23am 350 3 5 31 65 75.4 58.5 29.90 0.99 0.00 0.00 0.00 0.000
5:24am 350 1 5 31 65 75.2 58.5 29.90 0.99 0.00 0.00 0.00 0.000
5:25am 350 0 5 31 65 75.2 58.6 29.90 0.99 0.00 0.00 0.00 0.000
5:25am 350 0 5 31 65 75.2 58.7 29.90 0.99 0.00 0.00 0.00 0.000
5:27am 350 0 5 31 65 75.2 58.9 29.90 0.99 0.00 0.00 0.00 0.000
5:28am 350 2 5 31 65 75.2 58.9 29.90 0.99 0.00 0.00 0.00 0.000
5:29am 350 3 5 31 65 75.2 59.0 29.90 0.99 0.00 0.00 0.00 0.000
5:30am 350 3 5 31 65 75.2 59.1 29.90 0.99 0.00 0.00 0.00 0.000
5:31am 350 3 3 31 64 75.2 59.1 29.90 0.99 0.00 0.00 0.00 0.000
5:32am 350 1 3 31 64 75.2 59.2 29.90 0.99 0.00 0.00 0.00 0.000
5:33am 350 0 3 31 64 75.1 59.3 29.91 0.99 0.00 0.00 0.00 0.000
5:34am 350 0 3 31 64 75.1 59.3 29.91 0.99 0.00 0.00 0.00 0.000
5:35am 350 1 3 31 64 75.1 59.3 29.90 0.99 0.00 0.00 0.00 0.000
5:36am 350 1 3 31 64 75.1 59.4 29.90 0.99 0.00 0.00 0.00 0.000
5:37am 350 1 3 31 63 75.1 59.6 29.90 0.99 0.00 0.00 0.00 0.000
5:38am 350 0 3 31 63 75.1 59.7 29.90 0.99 0.00 0.00 0.00 0.000
5:39am 350 1 3 31 63 75.1 59.8 29.90 0.99 0.00 0.00 0.00 0.000
5:40am 350 0 3 31 62 75.1 59.9 29.91 0.99 0.00 0.00 0.00 0.000
5:41am 350 0 3 31 62 75.1 59.9 29.91 0.99 0.00 0.00 0.00 0.000
5:42am 350 0 3 31 62 74.9 59.9 29.91 0.99 0.00 0.00 0.00 0.000
5:42am 350 0 3 31 62 74.9 59.9 29.90 0.99 0.00 0.00 0.00 0.000
5:44am 350 0 3 31 61 74.9 59.9 29.91 0.99 0.00 0.00 0.00 0.000
5:45am 350 0 3 31 61 74.9 59.8 29.91 0.99 0.00 0.00 0.00 0.000
5:46am 350 3 3 31 61 74.9 59.7 29.90 0.99 0.00 0.00 0.00 0.000
5:47am 350 3 4 31 60 74.9 59.6 29.91 0.99 0.00 0.00 0.00 0.000
5:48am 350 3 4 31 60 74.9 59.6 29.90 0.99 0.00 0.00 0.00 0.000
5:49am 350 3 4 31 60 74.9 59.7 29.90 0.99 0.00 0.00 0.00 0.000
5:49am 350 2 4 31 60 74.9 59.8 29.91 0.99 0.00 0.00 0.00 0.000
5:51am 350 1 4 31 60 74.9 59.9 29.91 0.99 0.00 0.00 0.00 0.000
5:52am 350 1 4 31 60 74.9 60.1 29.91 0.99 0.00 0.00 0.00 0.000
5:53am 350 1 4 31 59 74.7 60.2 29.91 0.99 0.00 0.00 0.00 0.000
5:54am 350 3 4 31 59 74.7 60.4 29.91 0.99 0.00 0.00 0.00 0.000
5:55am 350 1 4 31 58 74.7 60.4 29.91 0.99 0.00 0.00 0.00 0.000
5:56am 350 2 4 31 58 74.7 60.4 29.90 0.99 0.00 0.00 0.00 0.000
5:57am 350 2 4 31 57 74.7 60.3 29.91 0.99 0.00 0.00 0.00 0.000
5:58am 350 2 4 31 56 74.7 60.3 29.91 0.99 0.00 0.00 0.00 0.000
5:59am 350 1 4 31 56 74.7 60.2 29.91 0.99 0.00 0.00 0.00 0.000
6:00am 350 1 4 31 56 74.7 60.3 29.91 0.99 0.00 0.00 0.00 0.000
6:01am 350 0 0 31 57 74.7 60.3 29.91 0.99 0.00 0.00 0.00 0.000
6:02am 350 0 0 31 57 74.7 60.4 29.91 0.99 0.00 0.00 0.00 0.000
6:03am 350 0 0 31 57 74.5 60.5 29.91 0.99 0.00 0.00 0.00 0.000
6:04am 350 0 1 31 57 74.5 60.4 29.91 0.99 0.00 0.00 0.00 0.000
6:05am 350 0 1 31 57 74.5 60.4 29.91 0.99 0.00 0.00 0.00 0.000
6:06am 350 0 1 31 57 74.5 60.3 29.91 0.99 0.00 0.00 0.00 0.000
6:07am 350 0 1 31 57 74.5 60.3 29.91 0.99 0.00 0.00 0.00 0.000
6:08am 350 0 1 31 57 74.5 60.3 29.91 0.99 0.00 0.00 0.00 0.000
6:09am 350 0 1 31 57 74.5 60.3 29.91 0.99 0.00 0.00 0.00 0.000
6:10am 350 0 1 31 57 74.5 60.3 29.91 0.99 0.00 0.00 0.00 0.000
6:11am 350 0 1 31 57 74.5 60.3 29.91 0.99 0.00 0.00 0.00 0.000
6:12am 350 1 1 31 57 74.5 60.4 29.91 0.99 0.00 0.00 0.00 0.000
6:13am 350 0 1 31 57 74.5 60.4 29.91 0.99 0.00 0.00 0.00 0.000
6:13am 350 0 1 31 57 74.5 60.5 29.91 0.99 0.00 0.00 0.00 0.000
6:15am 350 0 1 31 57 74.4 60.5 29.91 0.99 0.00 0.00 0.00 0.000
6:16am 350 2 2 31 56 74.4 60.4 29.91 0.99 0.00 0.00 0.00 0.000
6:17am 350 2 3 31 56 74.4 60.4 29.91 0.99 0.00 0.00 0.00 0.000
6:18am 350 0 3 31 56 74.4 60.4 29.91 0.99 0.00 0.00 0.00 0.000
6:19am 350 0 3 31 56 74.4 60.4 29.91 0.99 0.00 0.00 0.00 0.000
6:20am 350 0 3 31 56 74.4 60.4 29.91 0.99 0.00 0.00 0.00 0.000
6:21am 350 1 3 31 56 74.4 60.4 29.91 0.99 0.00 0.00 0.00 0.000
6:22am 350 1 3 31 56 74.4 60.3 29.91 0.99 0.00 0.00 0.00 0.000
6:23am 350 0 3 31 56 74.4 60.3 29.91 0.99 0.00 0.00 0.00 0.000
6:24am 350 0 3 31 56 74.4 60.2 29.91 0.99 0.00 0.00 0.00 0.000
6:25am 350 0 3 31 56 74.2 60.2 29.91 0.99 0.00 0.00 0.00 0.000
6:26am 350 0 3 31 56 74.2 60.1 29.91 0.99 0.00 0.00 0.00 0.000
6:27am 350 0 3 31 56 74.2 60.1 29.91 0.99 0.00 0.00 0.00 0.000
6:28am 350 0 3 31 56 74.2 60.1 29.91 0.99 0.00 0.00 0.00 0.000
6:29am 350 0 3 31 55 74.2 60.2 29.91 0.99 0.00 0.00 0.00 0.000
6:30am 350 0 3 31 55 74.2 60.2 29.91 0.99 0.00 0.00 0.00 0.000
6:31am 350 0 0 31 55 74.2 60.3 29.91 0.99 0.00 0.00 0.00 0.000
6:32am 350 0 0 31 55 74.2 60.3 29.91 0.99 0.00 0.00 0.00 0.000
6:33am 350 0 0 31 55 74.2 60.3 29.91 0.99 0.00 0.00 0.00 0.000
6:34am 350 0 0 31 55 74.2 60.3 29.91 0.99 0.00 0.00 0.00 0.000
6:35am 350 0 0 31 55 74.2 60.3 29.91 0.99 0.00 0.00 0.00 0.000
6:36am 350 0 1 31 55 74.2 60.3 29.91 0.99 0.00 0.00 0.00 0.000
6:37am 350 0 1 31 54 74.2 60.4 29.91 0.99 0.00 0.00 0.00 0.000
6:38am 350 0 1 31 54 74.0 60.4 29.91 0.99 0.00 0.00 0.00 0.000
6:39am 350 0 1 31 54 74.0 60.4 29.91 0.99 0.00 0.00 0.00 0.000
6:40am 350 0 1 31 54 74.0 60.4 29.91 0.99 0.00 0.00 0.00 0.000
6:41am 350 0 1 31 54 74.0 60.3 29.91 0.99 0.00 0.00 0.00 0.000
6:42am 350 0 1 31 54 74.0 60.3 29.91 0.99 0.00 0.00 0.00 0.000
6:43am 350 0 1 31 54 74.0 60.3 29.91 0.99 0.00 0.00 0.00 0.000
6:44am 350 0 1 31 54 74.0 60.2 29.91 0.99 0.00 0.00 0.00 0.000
6:45am 350 0 1 31 55 74.0 60.2 29.91 0.99 0.00 0.00 0.00 0.000
6:46am 350 0 0 31 55 74.0 60.1 29.91 0.99 0.00 0.00 0.00 0.000
6:47am 350 0 0 31 55 74.0 60.0 29.91 0.99 0.00 0.00 0.00 0.000
6:48am 350 0 0 31 55 73.9 59.9 29.91 0.99 0.00 0.00 0.00 0.000
6:49am 350 0 0 31 55 73.9 59.9 29.91 0.99 0.00 0.00 0.00 0.000
6:50am 350 0 0 31 55 73.9 59.8 29.91 0.99 0.00 0.00 0.00 0.000
6:51am 350 0 0 31 55 73.9 59.7 29.91 0.99 0.00 0.00 0.00 0.000
6:52am 350 2 2 31 54 73.9 59.6 29.91 0.99 0.00 0.00 0.00 0.000
6:53am 350 2 3 31 54 73.9 59.3 29.91 0.99 0.00 0.00 0.00 0.000
6:54am 350 2 3 31 53 73.9 59.3 29.91 0.99 0.00 0.00 0.00 0.000
6:55am 350 0 3 31 53 73.9 59.3 29.91 0.99 0.00 0.00 0.00 0.000
6:56am 350 0 3 31 54 73.9 59.3 29.91 0.99 0.00 0.00 0.00 0.000
6:57am 350 0 3 31 55 73.9 59.3 29.91 0.99 0.00 0.00 0.00 0.000
6:58am 350 0 3 31 55 73.9 59.3 29.91 0.99 0.00 0.00 0.00 0.000
6:59am 350 0 3 31 55 73.9 59.3 29.91 0.99 0.00 0.00 0.00 0.000
7:00am 350 0 3 31 55 73.9 59.3 29.91 0.99 0.00 0.00 0.00 0.000
7:01am 350 0 0 31 55 73.7 59.3 29.92 0.99 0.00 0.00 0.00 0.000
7:02am 350 0 0 31 55 73.7 59.3 29.92 0.99 0.00 0.00 0.00 0.000
7:03am 350 0 0 31 55 73.7 59.3 29.92 0.99 0.00 0.00 0.00 0.000
7:04am 350 0 0 31 54 73.7 59.3 29.92 0.99 0.00 0.00 0.00 0.000
7:05am 350 0 0 31 54 73.7 59.4 29.92 0.99 0.00 0.00 0.00 0.000
7:06am 350 0 0 31 54 73.7 59.5 29.92 0.99 0.00 0.00 0.00 0.000
7:07am 350 0 0 31 54 73.7 59.5 29.92 0.99 0.00 0.00 0.00 0.000
7:08am 350 1 2 31 53 73.7 59.4 29.92 0.99 0.00 0.00 0.00 0.000
7:09am 350 1 2 31 52 73.7 59.3 29.92 0.99 0.00 0.00 0.00 0.000
7:10am 350 1 2 31 52 73.7 59.3 29.92 0.99 0.00 0.00 0.00 0.000
7:11am 350 0 2 31 52 73.7 59.3 29.92 0.99 0.00 0.00 0.00 0.000
7:12am 350 1 2 31 52 73.5 59.2 29.92 0.99 0.00 0.00 0.00 0.000
7:13am 350 2 2 31 52 73.5 59.3 29.92 0.99 0.00 0.00 0.00 0.000
7:14am 350 1 2 31 52 73.5 59.3 29.92 0.99 0.00 0.00 0.00 0.000
7:15am 350 1 2 31 52 73.5 59.3 29.92 0.99 0.00 0.00 0.00 0.000
7:16am 350 2 2 31 52 73.5 59.6 29.92 0.99 0.00 0.00 0.00 0.000
7:17am 350 2 2 31 53 73.5 59.9 29.92 0.99 0.00 0.00 0.00 0.000
7:18am 350 2 2 31 53 73.5 60.0 29.92 0.99 0.00 0.00 0.00 0.000
7:19am 350 2 2 31 53 73.5 60.2 29.92 0.99 0.00 0.00 0.00 0.000
7:20am 350 1 2 31 52 73.5 60.4 29.92 0.99 0.00 0.00 0.00 0.000
7:21am 350 1 2 31 52 73.5 60.6 29.92 0.99 0.00 0.00 0.00 0.000
7:22am 350 1 2 31 51 73.5 60.9 29.92 0.99 0.00 0.00 0.00 0.000
7:23am 350 1 2 31 51 73.5 61.1 29.92 0.99 0.00 0.00 0.00 0.000
7:24am 350 0 2 31 51 73.3 61.4 29.92 0.99 0.00 0.00 0.00 0.000
7:25am 350 1 2 31 50 73.3 61.5 29.92 0.99 0.00 0.00 0.00 0.000
7:26am 350 2 3 30 49 73.3 61.8 29.92 0.99 0.00 0.00 0.00 0.000
7:27am 350 1 3 31 49 73.3 62.1 29.92 0.99 0.00 0.00 0.00 0.000
7:28am 350 1 3 30 48 73.3 62.3 29.92 0.99 0.00 0.00 0.00 0.000
7:29am 350 0 3 30 48 73.3 62.5 29.92 0.99 0.00 0.00 0.00 0.000
7:30am 350 0 3 30 48 73.3 62.8 29.92 0.99 0.00 0.00 0.00 0.000
7:31am 350 0 0 30 48 73.3 63.0 29.92 0.99 0.00 0.00 0.00 0.000
7:32am 350 0 0 30 48 73.3 63.2 29.92 0.99 0.00 0.00 0.00 0.000
7:33am 350 0 0 30 48 73.3 63.2 29.92 0.99 0.00 0.00 0.00 0.000
7:34am 350 0 0 30 49 73.3 63.3 29.92 0.99 0.00 0.00 0.00 0.000
7:35am 350 0 1 30 49 73.3 63.3 29.92 0.99 0.00 0.00 0.00 0.000
7:36am 350 1 2 30 49 73.3 63.4 29.92 0.99 0.00 0.00 0.00 0.000
7:37am 350 1 2 30 48 73.2 63.5 29.92 0.99 0.00 0.00 0.00 0.000
7:38am 350 2 3 30 48 73.2 63.8 29.92 0.99 0.00 0.00 0.00 0.000
7:39am 350 2 3 30 48 73.2 64.0 29.92 0.99 0.00 0.00 0.00 0.000
7:40am 350 0 3 30 47 73.2 64.3 29.92 0.99 0.00 0.00 0.00 0.000
7:41am 350 0 3 30 47 73.2 64.5 29.92 0.99 0.00 0.00 0.00 0.000
7:42am 350 0 3 30 47 73.2 64.7 29.92 0.99 0.00 0.00 0.00 0.000
7:43am 350 0 3 30 47 73.2 65.0 29.92 0.99 0.00 0.00 0.00 0.000
7:44am 350 0 3 30 46 73.2 65.2 29.92 0.99 0.00 0.00 0.00 0.000
7:45am 350 0 3 30 46 73.2 65.3 29.92 0.99 0.00 0.00 0.00 0.000
7:46am 350 0 1 30 46 73.2 65.6 29.92 0.99 0.00 0.00 0.00 0.000
7:47am 350 0 1 30 47 73.2 65.8 29.92 0.99 0.00 0.00 0.00 0.000
7:48am 350 0 1 30 47 73.2 65.9 29.92 0.99 0.00 0.00 0.00 0.000
7:49am 350 0 1 30 47 73.2 66.1 29.92 0.99 0.00 0.00 0.00 0.000
7:50am 350 0 1 30 47 73.2 66.2 29.92 0.99 0.00 0.00 0.00 0.000
7:51am 350 0 1 30 47 73.2 66.2 29.92 0.99 0.00 0.00 0.00 0.000
7:52am 350 0 1 30 48 73.2 66.1 29.92 0.99 0.00 0.00 0.00 0.000
7:53am 350 0 1 30 48 73.2 66.1 29.92 0.99 0.00 0.00 0.00 0.000
7:54am 350 0 1 31 47 73.2 66.2 29.92 0.99 0.00 0.00 0.00 0.000
7:55am 350 0 1 31 46 73.2 66.4 29.92 0.99 0.00 0.00 0.00 0.000
7:55am 350 0 1 31 47 73.2 66.6 29.92 0.99 0.00 0.00 0.00 0.000
7:57am 350 0 1 31 47 73.2 66.8 29.91 0.99 0.00 0.00 0.00 0.000
7:58am 350 0 1 31 48 73.2 66.9 29.91 0.99 0.00 0.00 0.00 0.000
7:59am 350 0 1 31 49 73.2 66.8 29.91 0.99 0.00 0.00 0.00 0.000
8:00am 350 0 1 31 48 73.2 66.8 29.91 0.99 0.00 0.00 0.00 0.000
8:01am 350 0 0 31 49 73.2 66.9 29.92 0.99 0.00 0.00 0.00 0.000
8:02am 350 0 0 31 49 73.2 67.1 29.92 0.99 0.00 0.00 0.00 0.000
8:03am 350 0 0 31 51 73.2 67.1 29.92 0.99 0.00 0.00 0.00 0.000
8:04am 350 0 0 31 51 73.2 67.1 29.92 0.99 0.00 0.00 0.00 0.000
8:05am 350 0 0 31 51 73.2 67.2 29.92 0.99 0.00 0.00 0.00 0.000
8:06am 350 0 0 31 51 73.2 67.3 29.92 0.99 0.00 0.00 0.00 0.000
8:07am 350 0 0 31 52 73.2 67.3 29.92 0.99 0.00 0.00 0.00 0.000
8:08am 350 0 0 31 51 73.2 67.4 29.92 0.99 0.00 0.00 0.00 0.000
8:09am 350 0 0 31 50 73.2 67.5 29.92 0.99 0.00 0.00 0.00 0.000
8:10am 350 0 1 31 50 73.2 67.6 29.92 0.99 0.00 0.00 0.00 0.000
8:11am 350 0 1 31 49 73.2 67.7 29.92 0.99 0.00 0.00 0.00 0.000
8:12am 350 0 1 32 48 73.2 67.9 29.92 0.99 0.00 0.00 0.00 0.000
8:13am 350 0 1 32 48 73.2 68.2 29.92 0.99 0.00 0.00 0.00 0.000
8:14am 350 0 1 32 47 73.2 68.3 29.92 0.99 0.00 0.00 0.00 0.000
8:15am 350 0 1 32 47 73.2 68.4 29.92 0.99 0.00 0.00 0.00 0.000
8:16am 350 0 0 32 46 73.3 68.6 29.92 0.99 0.00 0.00 0.00 0.000
8:17am 350 0 0 32 46 73.3 68.8 29.92 0.99 0.00 0.00 0.00 0.000
8:18am 350 0 0 32 47 73.3 68.9 29.92 0.99 0.00 0.00 0.00 0.000
8:19am 350 0 0 32 46 73.3 69.1 29.92 0.99 0.00 0.00 0.00 0.000
8:20am 350 0 0 32 46 73.3 69.2 29.92 0.99 0.00 0.00 0.00 0.000
8:21am 350 0 0 32 45 73.3 69.3 29.92 0.99 0.00 0.00 0.00 0.000
8:22am 350 0 0 32 44 73.3 69.4 29.92 0.99 0.00 0.00 0.00 0.000
8:23am 350 0 0 32 44 73.3 69.6 29.92 0.99 0.00 0.00 0.00 0.000
8:24am 350 0 1 32 44 73.5 69.7 29.92 0.99 0.00 0.00 0.00 0.000
8:25am 350 1 1 33 44 73.5 69.7 29.92 0.99 0.00 0.00 0.00 0.000
8:26am 350 0 1 33 44 73.5 69.8 29.92 0.99 0.00 0.00 0.00 0.000
8:27am 350 0 1 33 44 73.5 69.9 29.92 0.99 0.00 0.00 0.00 0.000
8:28am 350 0 1 33 44 73.5 70.0 29.92 0.99 0.00 0.00 0.00 0.000
8:29am 350 0 1 33 44 73.5 70.1 29.92 0.99 0.00 0.00 0.00 0.000
8:30am 350 0 1 33 44 73.5 70.2 29.92 0.99 0.00 0.00 0.00 0.000
8:31am 350 0 0 33 43 73.7 70.3 29.92 0.99 0.00 0.00 0.00 0.000
8:32am 350 0 0 33 43 73.7 70.4 29.92 0.99 0.00 0.00 0.00 0.000
8:33am 350 0 0 34 43 73.7 70.4 29.92 0.99 0.00 0.00 0.00 0.000
8:34am 350 0 0 34 43 73.7 70.5 29.92 0.99 0.00 0.00 0.00 0.000
8:35am 350 0 0 34 43 73.7 70.6 29.92 0.99 0.00 0.00 0.00 0.000
8:36am 350 0 0 34 43 73.9 70.7 29.92 0.99 0.00 0.00 0.00 0.000
8:37am 350 0 0 34 43 73.9 70.7 29.92 0.99 0.00 0.00 0.00 0.000
8:38am 350 0 0 34 43 73.9 70.7 29.92 0.99 0.00 0.00 0.00 0.000
8:39am 350 0 0 34 43 73.9 70.8 29.92 0.99 0.00 0.00 0.00 0.000
8:40am 350 0 0 34 44 74.0 70.9 29.92 0.99 0.00 0.00 0.00 0.000
8:40am 350 0 0 34 44 74.0 70.9 29.92 0.99 0.00 0.00 0.00 0.000
8:42am 350 0 0 34 43 74.0 71.0 29.92 0.99 0.00 0.00 0.00 0.000
8:43am 350 0 0 34 43 74.0 71.1 29.92 0.99 0.00 0.00 0.00 0.000
8:44am 350 0 0 34 43 74.0 71.2 29.92 0.99 0.00 0.00 0.00 0.000
8:45am 350 0 0 34 43 74.2 71.2 29.92 0.99 0.00 0.00 0.00 0.000
8:46am 350 0 0 34 43 74.2 71.2 29.92 0.99 0.00 0.00 0.00 0.000
8:47am 350 0 0 34 43 74.2 71.3 29.92 0.99 0.00 0.00 0.00 0.000
8:48am 350 0 0 34 43 74.2 71.3 29.92 0.99 0.00 0.00 0.00 0.000
8:49am 350 0 0 35 42 74.2 71.4 29.92 0.99 0.00 0.00 0.00 0.000
8:50am 350 0 0 35 42 74.4 71.5 29.92 0.99 0.00 0.00 0.00 0.000
8:51am 350 0 0 35 43 74.4 71.6 29.92 0.99 0.00 0.00 0.00 0.000
8:52am 350 0 0 35 42 74.4 71.6 29.92 0.99 0.00 0.00 0.00 0.000
8:53am 350 0 0 35 40 74.4 71.6 29.92 0.99 0.00 0.00 0.00 0.000
8:54am 350 0 0 35 40 74.5 71.7 29.92 0.99 0.00 0.00 0.00 0.000
8:55am 350 0 1 35 41 74.5 71.8 29.92 0.99 0.00 0.00 0.00 0.000
8:56am 350 0 1 36 40 74.5 72.0 29.92 0.99 0.00 0.00 0.00 0.000
8:57am 350 0 1 36 39 74.7 72.1 29.92 0.99 0.00 0.00 0.00 0.000
8:58am 350 0 1 36 39 74.7 72.2 29.92 0.99 0.00 0.00 0.00 0.000
8:59am 350 0 1 36 39 74.7 72.3 29.92 0.99 0.00 0.00 0.00 0.000
9:00am 350 0 1 36 40 74.7 72.4 29.92 0.99 0.00 0.00 0.00 0.000
9:01am 350 1 2 36 40 74.9 72.4 29.92 0.99 0.00 0.00 0.00 0.000
9:02am 350 0 2 36 38 74.9 72.4 29.92 0.99 0.00 0.00 0.00 0.000
9:02am 350 1 2 36 38 74.9 72.5 29.92 0.99 0.00 0.00 0.00 0.000
9:04am 350 0 2 36 38 74.9 72.6 29.92 0.99 0.00 0.00 0.00 0.000
9:04am 350 1 2 36 37 75.1 72.7 29.92 0.99 0.00 0.00 0.00 0.000
9:06am 350 2 2 36 38 75.1 72.8 29.92 0.99 0.00 0.00 0.00 0.000
9:07am 350 1 2 36 38 75.1 72.9 29.92 0.99 0.00 0.00 0.00 0.000
9:08am 350 0 2 36 38 75.1 73.0 29.92 0.99 0.00 0.00 0.00 0.000
9:09am 350 1 2 36 38 75.2 73.1 29.92 0.99 0.00 0.00 0.00 0.000
9:09am 350 2 2 36 37 75.2 73.2 29.92 0.99 0.00 0.00 0.00 0.000
9:11am 350 0 2 36 37 75.2 73.3 29.92 0.99 0.00 0.00 0.00 0.000
9:12am 350 1 2 36 38 75.4 73.5 29.92 0.99 0.00 0.00 0.00 0.000
9:13am 350 1 2 36 38 75.4 73.6 29.92 0.99 0.00 0.00 0.00 0.000
9:14am 350 1 3 36 38 75.4 73.7 29.92 0.99 0.00 0.00 0.00 0.000
9:15am 350 0 3 37 37 75.4 73.8 29.92 0.99 0.00 0.00 0.00 0.000
9:16am 350 2 3 37 37 75.6 73.8 29.92 0.99 0.00 0.00 0.00 0.000
9:17am 350 0 3 37 37 75.6 73.9 29.92 0.99 0.00 0.00 0.00 0.000
9:18am 350 4 4 37 37 75.6 74.0 29.92 0.99 0.00 0.00 0.00 0.000
9:19am 350 2 4 37 36 75.8 74.0 29.92 0.99 0.00 0.00 0.00 0.000
9:20am 350 2 4 37 36 75.8 74.1 29.92 0.99 0.00 0.00 0.00 0.000
9:21am 350 1 4 37 35 75.9 74.1 29.92 0.99 0.00 0.00 0.00 0.000
9:22am 350 0 4 37 35 75.9 74.2 29.92 0.99 0.00 0.00 0.00 0.000
9:23am 350 0 4 37 36 75.9 74.4 29.92 0.99 0.00 0.00 0.00 0.000
9:24am 350 1 4 37 36 75.9 74.6 29.92 0.99 0.00 0.00 0.00 0.000
9:25am 350 0 4 37 36 75.9 74.6 29.92 0.99 0.00 0.00 0.00 0.000
9:26am 350 1 4 37 35 76.1 74.7 29.92 0.99 0.00 0.00 0.00 0.000
9:27am 350 1 4 37 35 76.1 74.7 29.92 0.99 0.00 0.00 0.00 0.000
9:28am 350 1 4 37 34 76.1 74.8 29.91 0.99 0.00 0.00 0.00 0.000
9:29am 350 0 4 37 34 76.3 74.9 29.91 0.99 0.00 0.00 0.00 0.000
9:30am 350 1 4 37 34 76.3 74.9 29.91 0.99 0.00 0.00 0.00 0.000
9:31am 350 0 1 37 34 76.3 75.0 29.91 0.99 0.00 0.00 0.00 0.000
9:32am 350 1 2 37 35 76.5 75.1 29.91 0.99 0.00 0.00 0.00 0.000
9:33am 350 1 2 37 35 76.5 75.2 29.91 0.99 0.00 0.00 0.00 0.000
9:34am 350 2 3 37 34 76.5 75.3 29.91 0.99 0.00 0.00 0.00 0.000
9:35am 350 0 3 38 34 76.6 75.4 29.91 0.99 0.00 0.00 0.00 0.000
9:36am 350 1 3 37 35 76.6 75.5 29.92 0.99 0.00 0.00 0.00 0.000
9:37am 350 1 3 38 36 76.6 75.5 29.91 0.99 0.00 0.00 0.00 0.000
9:38am 350 1 3 38 35 76.8 75.6 29.91 0.99 0.00 0.00 0.00 0.000
9:39am 350 2 3 38 34 76.8 75.6 29.91 0.99 0.00 0.00 0.00 0.000
9:39am 350 1 3 38 33 76.8 75.7 29.91 0.99 0.00 0.00 0.00 0.000
9:41am 350 1 3 38 33 77.0 75.8 29.91 0.99 0.00 0.00 0.00 0.000
9:42am 350 0 3 38 34 77.0 75.9 29.91 0.99 0.00 0.00 0.00 0.000
9:43am 350 0 3 38 35 77.0 76.1 29.91 0.99 0.00 0.00 0.00 0.000
9:44am 350 0 3 38 35 77.2 76.1 29.91 0.99 0.00 0.00 0.00 0.000
9:45am 350 0 3 38 34 77.2 76.1 29.91 0.99 0.00 0.00 0.00 0.000
9:46am 350 3 3 38 34 77.2 76.2 29.91 0.99 0.00 0.00 0.00 0.000
9:47am 350 2 3 38 34 77.3 76.2 29.91 0.99 0.00 0.00 0.00 0.000
9:48am 350 0 3 38 34 77.3 76.2 29.91 0.99 0.00 0.00 0.00 0.000
9:49am 350 0 3 38 33 77.3 76.2 29.91 0.99 0.00 0.00 0.00 0.000
9:50am 350 0 3 38 33 77.5 76.3 29.91 0.99 0.00 0.00 0.00 0.000
9:51am 350 1 3 38 33 77.5 76.4 29.91 0.99 0.00 0.00 0.00 0.000
9:52am 350 1 3 38 34 77.5 76.5 29.91 0.99 0.00 0.00 0.00 0.000
9:53am 350 2 3 38 34 77.5 76.6 29.91 0.99 0.00 0.00 0.00 0.000
9:54am 350 1 3 38 33 77.7 76.7 29.91 0.99 0.00 0.00 0.00 0.000
9:54am 350 1 3 38 33 77.7 76.8 29.91 0.99 0.00 0.00 0.00 0.000
9:56am 350 2 3 38 32 77.9 76.9 29.91 0.99 0.00 0.00 0.00 0.000
9:57am 216 2 4 38 33 77.9 77.0 29.91 0.99 0.00 0.00 0.00 0.000
9:57am 215 0 4 38 33 77.9 77.1 29.91 0.99 0.00 0.00 0.00 0.000
9:59am 215 0 4 38 33 78.1 77.2 29.91 0.99 0.00 0.00 0.00 0.000
10:00am 203 1 4 38 34 78.1 77.3 29.91 0.99 0.00 0.00 0.00 0.000
10:01am 114 0 2 38 33 78.2 77.4 29.91 0.99 0.00 0.00 0.00 0.000
10:02am 114 0 2 38 33 78.2 77.6 29.91 0.99 0.00 0.00 0.00 0.000
10:03am 114 1 2 38 32 78.2 77.6 29.91 0.99 0.00 0.00 0.00 0.000
10:04am 114 0 2 38 32 78.4 77.6 29.91 0.99 0.00 0.00 0.00 0.000
10:05am 114 0 2 38 32 78.4 77.6 29.91 0.99 0.00 0.00 0.00 0.000
10:06am 113 0 2 38 32 78.4 77.7 29.91 0.99 0.00 0.00 0.00 0.000
10:07am 118 1 2 38 33 78.4 77.9 29.90 0.99 0.00 0.00 0.00 0.000
10:08am 163 1 4 38 33 78.6 78.0 29.91 0.99 0.00 0.00 0.00 0.000
10:09am 163 0 4 38 32 78.6 78.1 29.91 0.99 0.00 0.00 0.00 0.000
10:10am 163 1 4 38 32 78.6 78.0 29.91 0.99 0.00 0.00 0.00 0.000
10:11am 163 1 4 38 32 78.6 78.0 29.91 0.99 0.00 0.00 0.00 0.000
10:12am 163 1 4 38 33 78.8 78.1 29.91 0.99 0.00 0.00 0.00 0.000
10:12am 163 0 4 38 33 78.8 78.1 29.91 0.99 0.00 0.00 0.00 0.000
10:14am 85 0 4 38 33 78.8 78.3 29.91 0.99 0.00 0.00 0.00 0.000
10:15am 87 0 4 38 33 78.9 78.4 29.91 0.99 0.00 0.00 0.00 0.000
10:16am 178 2 3 38 33 78.9 78.5 29.91 0.99 0.00 0.00 0.00 0.000
10:17am 178 0 3 38 33 78.9 78.5 29.91 0.99 0.00 0.00 0.00 0.000
10:18am 178 1 3 37 33 79.1 78.5 29.90 0.99 0.00 0.00 0.00 0.000
10:18am 68 1 3 37 33 79.1 78.5 29.90 0.99 0.00 0.00 0.00 0.000
10:20am 73 3 3 37 32 79.1 78.6 29.90 0.99 0.00 0.00 0.00 0.000
10:20am 159 2 3 37 32 79.1 78.8 29.90 0.99 0.00 0.00 0.00 0.000
10:22am 155 3 4 37 32 79.3 79.0 29.91 0.99 0.00 0.00 0.00 0.000
10:23am 86 2 4 37 32 79.3 79.0 29.90 0.99 0.00 0.00 0.00 0.000
10:24am 118 0 4 37 32 79.3 79.0 29.91 0.99 0.00 0.00 0.00 0.000
10:25am 118 0 4 37 32 79.3 79.0 29.91 0.99 0.00 0.00 0.00 0.000
10:25am 118 0 4 37 32 79.5 79.0 29.91 0.99 0.00 0.00 0.00 0.000
10:27am 184 3 5 37 32 79.5 79.0 29.90 0.99 0.00 0.00 0.00 0.000
10:27am 182 2 5 37 31 79.5 79.0 29.90 0.99 0.00 0.00 0.00 0.000
10:28am 178 3 5 37 31 79.7 79.0 29.90 0.99 0.00 0.00 0.00 0.000
10:30am 96 3 5 37 31 79.7 79.0 29.90 0.99 0.00 0.00 0.00 0.000
10:31am 92 0 3 37 31 79.7 79.0 29.90 0.99 0.00 0.00 0.00 0.000
10:32am 157 2 5 37 31 79.7 79.0 29.90 0.99 0.00 0.00 0.00 0.000
10:33am 157 2 5 37 30 79.9 79.0 29.90 0.99 0.00 0.00 0.00 0.000
10:34am 180 0 5 37 30 79.9 79.0 29.90 0.99 0.00 0.00 0.00 0.000
10:35am 193 0 5 37 30 79.9 79.0 29.90 0.99 0.00 0.00 0.00 0.000
10:36am 193 2 5 37 31 80.1 79.1 29.90 0.99 0.00 0.00 0.00 0.000
10:37am 179 0 5 36 30 80.1 79.3 29.90 0.99 0.00 0.00 0.00 0.000
10:38am 169 1 5 36 30 80.1 79.4 29.90 0.99 0.00 0.00 0.00 0.000
10:39am 178 5 6 36 29 80.1 79.6 29.90 0.99 0.00 0.00 0.00 0.000
10:40am 191 4 6 36 29 80.2 79.6 29.89 0.99 0.00 0.00 0.00 0.000
10:41am 183 1 6 36 29 80.2 79.6 29.89 0.99 0.00 0.00 0.00 0.000
10:42am 183 0 6 36 30 80.2 79.6 29.89 0.99 0.00 0.00 0.00 0.000
10:43am 170 1 6 36 29 80.2 79.7 29.89 0.99 0.00 0.00 0.00 0.000
10:44am 81 4 6 36 29 80.4 79.8 29.89 0.99 0.00 0.00 0.00 0.000
10:45am 88 0 6 36 29 80.4 79.8 29.89 0.99 0.00 0.00 0.00 0.000
10:46am 85 1 2 36 29 80.4 79.8 29.89 0.99 0.00 0.00 0.00 0.000
10:47am 221 2 2 36 29 80.4 80.0 29.89 0.99 0.00 0.00 0.00 0.000
10:48am 221 0 3 36 29 80.6 80.1 29.89 0.99 0.00 0.00 0.00 0.000
10:49am 182 4 4 36 29 80.6 80.1 29.89 0.99 0.00 0.00 0.00 0.000
10:50am 94 1 6 36 29 80.6 80.0 29.89 0.99 0.00 0.00 0.00 0.000
10:51am 78 1 6 36 29 80.8 80.0 29.89 0.99 0.00 0.00 0.00 0.000
10:52am 153 1 6 36 28 80.8 80.0 29.89 0.99 0.00 0.00 0.00 0.000
10:53am 153 0 6 36 28 80.8 80.1 29.89 0.99 0.00 0.00 0.00 0.000
10:54am 153 0 6 36 29 80.8 80.1 29.89 0.99 0.00 0.00 0.00 0.000
10:55am 153 0 6 35 29 81.0 80.3 29.89 0.99 0.00 0.00 0.00 0.000
10:55am 153 1 6 35 28 81.0 80.3 29.89 0.99 0.00 0.00 0.00 0.000
10:57am 157 2 6 35 28 81.0 80.4 29.89 0.99 0.00 0.00 0.00 0.000
10:58am 82 2 6 35 28 81.2 80.4 29.89 0.99 0.00 0.00 0.00 0.000
10:59am 84 2 6 35 27 81.2 80.4 29.89 0.99 0.00 0.00 0.00 0.000
11:00am 88 2 6 35 27 81.2 80.4 29.90 0.99 0.00 0.00 0.00 0.000
11:01am 88 2 2 35 27 81.2 80.4 29.90 0.99 0.00 0.00 0.00 0.000
11:02am 88 0 2 35 27 81.2 80.4 29.90 0.99 0.00 0.00 0.00 0.000
11:03am 88 1 2 35 27 81.4 80.5 29.89 0.99 0.00 0.00 0.00 0.000
11:04am 88 0 2 35 27 81.4 80.5 29.89 0.99 0.00 0.00 0.00 0.000
11:05am 89 2 2 35 27 81.4 80.7 29.89 0.99 0.00 0.00 0.00 0.000
11:06am 172 1 4 35 28 81.4 80.9 29.89 0.99 0.00 0.00 0.00 0.000
11:07am 171 1 4 35 27 81.4 80.9 29.89 0.99 0.00 0.00 0.00 0.000
11:08am 176 1 4 35 27 81.5 80.9 29.89 0.99 0.00 0.00 0.00 0.000
11:09am 176 1 4 35 28 81.5 80.9 29.89 0.99 0.00 0.00 0.00 0.000
11:09am 178 2 4 35 28 81.5 81.0 29.89 0.99 0.00 0.00 0.00 0.000
11:11am 103 2 4 35 28 81.5 81.2 29.89 0.99 0.00 0.00 0.00 0.000
11:12am 153 4 4 34 28 81.7 81.3 29.89 0.99 0.00 0.00 0.00 0.000
11:13am 154 0 4 34 27 81.7 81.4 29.89 0.99 0.00 0.00 0.00 0.000
11:13am 153 1 4 34 27 81.7 81.5 29.89 0.99 0.00 0.00 0.00 0.000
11:15am 154 1 4 34 27 81.7 81.6 29.89 0.99 0.00 0.00 0.00 0.000
11:16am 154 0 1 34 27 81.9 81.8 29.89 0.99 0.00 0.00 0.00 0.000
11:16am 154 1 1 34 26 81.9 81.8 29.89 0.99 0.00 0.00 0.00 0.000
11:18am 154 0 3 34 26 81.9 81.7 29.89 0.99 0.00 0.00 0.00 0.000
11:18am 154 1 3 34 26 81.9 81.6 29.89 0.99 0.00 0.00 0.00 0.000
11:20am 154 0 3 34 26 81.9 81.6 29.89 0.99 0.00 0.00 0.00 0.000
11:20am 153 1 3 34 27 81.9 81.5 29.89 0.99 0.00 0.00 0.00 0.000
11:22am 153 0 3 34 27 82.1 81.7 29.89 0.99 0.00 0.00 0.00 0.000
11:23am 188 3 3 34 28 82.1 81.9 29.89 0.99 0.00 0.00 0.00 0.000
11:24am 174 3 3 34 27 82.1 81.9 29.89 0.99 0.00 0.00 0.00 0.000
11:25am 153 2 6 34 26 82.1 81.9 29.88 0.99 0.00 0.00 0.00 0.000
11:26am 153 2 6 34 26 82.1 81.9 29.88 0.99 0.00 0.00 0.00 0.000
11:27am 153 3 6 34 26 82.3 81.8 29.88 0.99 0.00 0.00 0.00 0.000
11:28am 165 0 6 34 27 82.3 81.9 29.88 0.99 0.00 0.00 0.00 0.000
11:29am 165 0 6 34 26 82.3 81.9 29.88 0.99 0.00 0.00 0.00 0.000
11:30am 167 2 6 33 26 82.3 82.1 29.88 0.99 0.00 0.00 0.00 0.000
11:31am 167 0 2 33 26 82.3 82.1 29.88 0.99 0.00 0.00 0.00 0.000
11:32am 107 2 3 33 26 82.5 82.2 29.88 0.99 0.00 0.00 0.00 0.000
11:33am 107 0 3 33 26 82.5 82.3 29.88 0.99 0.00 0.00 0.00 0.000
11:34am 107 0 3 33 25 82.5 82.4 29.88 0.99 0.00 0.00 0.00 0.000
11:35am 105 0 3 33 25 82.5 82.4 29.88 0.99 0.00 0.00 0.00 0.000
11:35am 20 1 3 33 25 82.5 82.4 29.88 0.99 0.00 0.00 0.00 0.000
11:37am 13 0 3 33 26 82.7 82.4 29.88 0.99 0.00 0.00 0.00 0.000
11:38am 13 0 3 33 26 82.7 82.5 29.88 0.99 0.00 0.00 0.00 0.000
11:39am 14 1 3 33 26 82.7 82.7 29.88 0.99 0.00 0.00 0.00 0.000
11:40am 238 2 3 33 26 82.7 82.8 29.88 0.99 0.00 0.00 0.00 0.000
11:41am 215 2 3 33 26 82.7 82.9 29.88 0.99 0.00 0.00 0.00 0.000
11:42am 215 1 3 32 25 82.9 82.8 29.88 0.99 0.00 0.00 0.00 0.000
11:43am 215 0 3 32 26 82.9 82.8 29.88 0.99 0.00 0.00 0.00 0.000
11:44am 213 2 4 32 26 82.9 82.8 29.88 0.99 0.00 0.00 0.00 0.000
11:45am 201 6 6 32 28 82.9 83.0 29.88 0.99 0.00 0.00 0.00 0.000
11:46am 214 2 7 32 25 82.9 82.9 29.88 0.99 0.00 0.00 0.00 0.000
11:47am 213 1 7 32 25 83.0 82.8 29.88 0.99 0.00 0.00 0.00 0.000
11:48am 197 3 7 32 26 83.0 82.7 29.88 0.99 0.00 0.00 0.00 0.000
11:49am 199 2 7 32 25 83.0 82.6 29.88 0.99 0.00 0.00 0.00 0.000
11:50am 199 3 7 32 25 83.0 82.6 29.88 0.99 0.00 0.00 0.00 0.000
11:51am 199 2 7 32 25 83.0 82.5 29.88 0.99 0.00 0.00 0.00 0.000
11:52am 199 1 7 32 25 83.0 82.5 29.88 0.99 0.00 0.00 0.00 0.000
11:53am 199 1 7 32 25 83.2 82.5 29.88 0.99 0.00 0.00 0.00 0.000
11:54am 199 2 7 32 25 83.2 82.6 29.88 0.99 0.00 0.00 0.00 0.000
11:54am 199 0 7 32 24 83.2 82.7 29.88 0.99 0.00 0.00 0.00 0.000
11:56am 172 1 7 32 24 83.2 82.8 29.88 0.99 0.00 0.00 0.00 0.000
11:57am 170 1 7 32 24 83.2 82.8 29.88 0.99 0.00 0.00 0.00 0.000
11:58am 170 0 7 32 24 83.4 83.0 29.88 0.99 0.00 0.00 0.00 0.000
11:59am 191 5 7 32 24 83.4 83.2 29.88 0.99 0.00 0.00 0.00 0.000
12:00pm 205 3 7 32 25 83.4 83.3 29.88 0.99 0.00 0.00 0.00 0.000
12:00pm 202 2 4 32 24 83.4 83.3 29.88 0.99 0.00 0.00 0.00 0.000
12:02pm 202 1 4 32 24 83.6 83.3 29.88 0.99 0.00 0.00 0.00 0.000
12:03pm 202 4 4 32 23 83.6 83.3 29.88 0.99 0.00 0.00 0.00 0.000
12:04pm 267 2 4 32 24 83.6 83.3 29.88 0.99 0.00 0.00 0.00 0.000
12:05pm 286 2 4 32 24 83.6 83.4 29.88 0.99 0.00 0.00 0.00 0.000
12:06pm 271 1 4 32 24 83.6 83.5 29.88 0.99 0.00 0.00 0.00 0.000
12:07pm 272 1 4 32 23 83.8 83.6 29.88 0.99 0.00 0.00 0.00 0.000
12:08pm 222 6 7 32 24 83.8 83.7 29.88 0.99 0.00 0.00 0.00 0.000
12:09pm 211 4 7 32 24 83.8 83.7 29.88 0.99 0.00 0.00 0.00 0.000
12:10pm 186 1 7 32 25 83.8 83.6 29.88 0.99 0.00 0.00 0.00 0.000
12:11pm 174 3 7 32 24 83.8 83.6 29.88 0.99 0.00 0.00 0.00 0.000
12:12pm 174 0 7 33 24 84.0 83.4 29.87 0.99 0.00 0.00 0.00 0.000
12:13pm 174 1 7 33 24 84.0 83.4 29.87 0.99 0.00 0.00 0.00 0.000
12:14pm 174 0 7 33 24 84.0 83.5 29.87 0.99 0.00 0.00 0.00 0.000
12:15pm 224 2 7 33 24 84.0 83.6 29.87 0.99 0.00 0.00 0.00 0.000
12:16pm 244 0 3 33 25 84.0 83.8 29.87 0.99 0.00 0.00 0.00 0.000
12:17pm 244 0 3 33 25 84.0 83.9 29.87 0.99 0.00 0.00 0.00 0.000
12:18pm 244 2 3 33 25 84.2 84.0 29.87 0.99 0.00 0.00 0.00 0.000
12:19pm 190 6 9 33 25 84.2 84.1 29.87 0.99 0.00 0.00 0.00 0.000
12:20pm 198 5 9 33 24 84.2 84.0 29.87 0.99 0.00 0.00 0.00 0.000
12:21pm 191 5 9 33 24 84.2 83.9 29.87 0.99 0.00 0.00 0.00 0.000
12:22pm 187 4 9 33 24 84.4 83.7 29.87 0.99 0.00 0.00 0.00 0.000
12:23pm 215 1 9 33 25 84.4 83.7 29.87 0.99 0.00 0.00 0.00 0.000
12:24pm 225 0 9 33 25 84.4 83.8 29.87 0.99 0.00 0.00 0.00 0.000
12:25pm 225 1 9 33 24 84.4 83.9 29.87 0.99 0.00 0.00 0.00 0.000
12:26pm 225 0 9 33 24 84.4 83.9 29.87 0.99 0.00 0.00 0.00 0.000
12:27pm 225 2 9 33 25 84.6 84.0 29.87 0.99 0.00 0.00 0.00 0.000
12:28pm 233 4 9 33 24 84.6 84.1 29.87 0.99 0.00 0.00 0.00 0.000
12:29pm 233 0 9 33 24 84.6 84.0 29.87 0.99 0.00 0.00 0.00 0.000
12:30pm 223 1 9 33 24 84.6 84.0 29.87 0.99 0.00 0.00 0.00 0.000
12:31pm 149 4 5 33 24 84.6 84.0 29.87 0.99 0.00 0.00 0.00 0.000
12:31pm 185 1 5 33 24 84.6 84.0 29.87 0.99 0.00 0.00 0.00 0.000
12:33pm 185 1 5 34 23 84.6 83.9 29.87 0.99 0.00 0.00 0.00 0.000
12:34pm 182 3 5 34 23 84.8 84.0 29.87 0.99 0.00 0.00 0.00 0.000
12:35pm 182 1 5 34 24 84.8 84.0 29.87 0.99 0.00 0.00 0.00 0.000
12:36pm 224 4 5 34 25 84.8 84.2 29.87 0.99 0.00 0.00 0.00 0.000
12:37pm 228 5 5 34 25 84.8 84.4 29.86 0.99 0.00 0.00 0.00 0.000
12:38pm 197 7 7 34 25 84.8 84.5 29.86 0.99 0.00 0.00 0.00 0.000
12:39pm 215 6 10 34 25 84.8 84.5 29.86 0.99 0.00 0.00 0.00 0.000
12:40pm 213 4 10 34 24 85.0 84.4 29.86 0.99 0.00 0.00 0.00 0.000
12:41pm 168 1 10 34 24 85.0 84.2 29.86 0.99 0.00 0.00 0.00 0.000
12:42pm 169 3 10 34 24 85.0 84.2 29.86 0.99 0.00 0.00 0.00 0.000
12:43pm 160 6 10 34 24 85.0 84.2 29.86 0.99 0.00 0.00 0.00 0.000
12:44pm 211 4 10 34 25 85.0 84.2 29.86 0.99 0.00 0.00 0.00 0.000
12:44pm 204 5 10 34 25 85.0 84.2 29.86 0.99 0.00 0.00 0.00 0.000
12:46pm 230 3 5 34 25 85.0 84.2 29.86 0.99 0.00 0.00 0.00 0.000
12:47pm 225 4 7 34 25 85.2 84.3 29.86 0.99 0.00 0.00 0.00 0.000
12:48pm 237 3 7 34 25 85.2 84.3 29.86 0.99 0.00 0.00 0.00 0.000
12:49pm 246 2 7 34 25 85.2 84.4 29.86 0.99 0.00 0.00 0.00 0.000
12:50pm 221 1 7 34 24 85.2 84.4 29.86 0.99 0.00 0.00 0.00 0.000
12:51pm 221 1 7 34 25 85.2 84.4 29.86 0.99 0.00 0.00 0.00 0.000
12:52pm 221 1 7 34 25 85.2 84.5 29.86 0.99 0.00 0.00 0.00 0.000
12:52pm 221 0 7 34 24 85.2 84.5 29.86 0.99 0.00 0.00 0.00 0.000
12:54pm 221 0 7 34 25 85.2 84.5 29.85 0.99 0.00 0.00 0.00 0.000
12:55pm 221 2 7 34 24 85.4 84.6 29.85 0.99 0.00 0.00 0.00 0.000
12:56pm 205 5 7 34 25 85.4 84.7 29.86 0.99 0.00 0.00 0.00 0.000
12:57pm 187 3 7 34 25 85.4 84.7 29.85 0.99 0.00 0.00 0.00 0.000
12:58pm 209 3 7 34 25 85.4 84.8 29.85 0.99 0.00 0.00 0.00 0.000
12:59pm 207 7 7 34 25 85.4 84.9 29.85 0.99 0.00 0.00 0.00 0.000
1:00pm 206 12 12 34 24 85.4 84.8 29.85 0.99 0.00 0.00 0.00 0.000
1:01pm 192 6 12 34 24 85.4 84.7 29.86 0.99 0.00 0.00 0.00 0.000
1:02pm 194 4 12 34 24 85.6 84.6 29.86 0.99 0.00 0.00 0.00 0.000
1:03pm 182 4 12 34 26 85.6 84.5 29.86 0.99 0.00 0.00 0.00 0.000
1:04pm 203 5 12 34 25 85.6 84.5 29.85 0.99 0.00 0.00 0.00 0.000
1:05pm 180 6 12 34 25 85.6 84.5 29.85 0.99 0.00 0.00 0.00 0.000
1:06pm 202 5 12 34 24 85.6 84.5 29.85 0.99 0.00 0.00 0.00 0.000
1:07pm 196 3 12 34 24 85.6 84.4 29.86 0.99 0.00 0.00 0.00 0.000
1:08pm 207 5 12 34 25 85.6 84.3 29.86 0.99 0.00 0.00 0.00 0.000
1:09pm 219 4 12 34 25 85.6 84.3 29.86 0.99 0.00 0.00 0.00 0.000
1:10pm 218 0 12 34 24 85.6 84.2 29.86 0.99 0.00 0.00 0.00 0.000
1:11pm 26 3 12 34 24 85.6 84.3 29.85 0.99 0.00 0.00 0.00 0.000
1:12pm 46 5 12 34 24 85.6 84.3 29.85 0.99 0.00 0.00 0.00 0.000
1:13pm 12 3 12 34 24 85.8 84.4 29.86 0.99 0.00 0.00 0.00 0.000
1:14pm 13 0 12 34 25 85.8 84.6 29.85 0.99 0.00 0.00 0.00 0.000
1:15pm 199 3 12 34 24 85.8 85.0 29.85 0.99 0.00 0.00 0.00 0.000
1:15pm 240 2 5 34 25 85.8 85.0 29.85 0.99 0.00 0.00 0.00 0.000
1:16pm 140 1 5 34 24 85.8 85.0 29.85 0.99 0.00 0.00 0.00 0.000
1:18pm 232 3 5 34 25 85.8 85.0 29.85 0.99 0.00 0.00 0.00 0.000
1:19pm 169 7 9 34 24 85.8 85.0 29.85 0.99 0.00 0.00 0.00 0.000
1:20pm 169 3 9 34 24 85.8 84.9 29.85 0.99 0.00 0.00 0.00 0.000
1:21pm 150 3 9 34 24 85.8 84.7 29.85 0.99 0.00 0.00 0.00 0.000
1:22pm 201 2 9 34 24 86.0 84.7 29.85 0.99 0.00 0.00 0.00 0.000
1:23pm 231 2 9 34 25 86.0 84.9 29.84 0.99 0.00 0.00 0.00 0.000
1:24pm 240 4 9 34 25 86.0 85.0 29.84 0.99 0.00 0.00 0.00 0.000
1:24pm 233 3 9 34 25 86.0 85.1 29.84 0.99 0.00 0.00 0.00 0.000
1:26pm 215 4 9 34 25 86.0 85.3 29.84 0.99 0.00 0.00 0.00 0.000
1:27pm 214 4 9 34 25 86.0 85.5 29.84 0.99 0.00 0.00 0.00 0.000
1:28pm 206 5 10 34 25 86.0 85.5 29.84 0.99 0.00 0.00 0.00 0.000
1:29pm 187 9 10 34 25 86.0 85.5 29.84 0.99 0.00 0.00 0.00 0.000
1:30pm 188 2 10 34 25 86.0 85.4 29.84 0.99 0.00 0.00 0.00 0.000
1:31pm 187 0 2 34 24 86.0 85.2 29.84 0.99 0.00 0.00 0.00 0.000
1:32pm 249 2 4 34 24 86.0 85.2 29.83 0.99 0.00 0.00 0.00 0.000
1:32pm 216 3 4 34 25 86.0 85.3 29.84 0.99 0.00 0.00 0.00 0.000
1:34pm 226 3 6 34 24 86.2 85.5 29.84 0.99 0.00 0.00 0.00 0.000
1:34pm 251 3 6 34 25 86.2 85.7 29.84 0.99 0.00 0.00 0.00 0.000
1:36pm 205 1 6 34 24 86.2 85.8 29.84 0.99 0.00 0.00 0.00 0.000
1:37pm 329 0 6 34 24 86.2 86.0 29.84 0.99 0.00 0.00 0.00 0.000
1:38pm 203 3 6 34 24 86.2 86.0 29.84 0.99 0.00 0.00 0.00 0.000
1:39pm 171 4 6 34 24 86.2 86.0 29.83 0.99 0.00 0.00 0.00 0.000
1:40pm 184 3 6 34 23 86.2 86.0 29.83 0.99 0.00 0.00 0.00 0.000
1:41pm 205 0 6 34 24 86.2 85.8 29.83 0.99 0.00 0.00 0.00 0.000
1:42pm 215 4 6 34 26 86.2 85.9 29.83 0.99 0.00 0.00 0.00 0.000
1:43pm 221 2 6 34 24 86.2 86.0 29.83 0.99 0.00 0.00 0.00 0.000
1:44pm 217 2 6 34 24 86.2 86.1 29.83 0.99 0.00 0.00 0.00 0.000
1:45pm 216 0 6 34 25 86.4 86.1 29.83 0.99 0.00 0.00 0.00 0.000
1:46pm 201 2 4 34 24 86.4 86.2 29.83 0.99 0.00 0.00 0.00 0.000
1:47pm 221 3 6 34 24 86.4 86.1 29.83 0.99 0.00 0.00 0.00 0.000
1:48pm 196 4 7 34 24 86.4 85.9 29.83 0.99 0.00 0.00 0.00 0.000
1:49pm 211 3 7 34 24 86.4 85.7 29.83 0.99 0.00 0.00 0.00 0.000
1:50pm 222 4 7 34 25 86.4 85.5 29.83 0.99 0.00 0.00 0.00 0.000